| time (UTC) | temp C | wind direction | speed KPH | gust KPH | rain 1hr cm | rain 24hr cm | rain mn cm | humidity % | barometer mb |
| 20260905052722 | 27 | 117 | 0.0 | 0.0 | 0.00 | 0.03 | 0.00 | 84 | 1012.7 |
| 20260905052223 | 27 | 143 | 1.6 | 3.2 | 0.00 | 0.03 | 0.00 | 84 | 1012.7 |
| 20260905052155 | 27 | 143 | 0.0 | 1.6 | 0.00 | 0.03 | 0.00 | 84 | 1012.7 |
| 20260905051723 | 27 | 145 | 0.0 | 1.6 | 0.00 | 0.03 | 0.00 | 84 | 1012.7 |
| 20260905051247 | 27 | 133 | 1.6 | 3.2 | 0.00 | 0.03 | 0.00 | 83 | 1012.7 |
| 20260905051222 | 27 | 144 | 1.6 | 3.2 | 0.00 | 0.03 | 0.00 | 83 | 1012.7 |
| 20260905051157 | 27 | 133 | 1.6 | 3.2 | 0.00 | 0.03 | 0.00 | 83 | 1012.7 |
| 20260905050723 | 27 | 107 | 0.0 | 0.0 | 0.00 | 0.03 | 0.00 | 82 | 1012.7 |
| 20260905050222 | 27 | 95 | 1.6 | 3.2 | 0.00 | 0.03 | 0.00 | 82 | 1012.7 |
| 20260905050155 | 27 | 95 | 1.6 | 1.6 | 0.00 | 0.03 | 0.00 | 82 | 1012.7 |
| 20260905045723 | 27 | 95 | 0.0 | 0.0 | 0.00 | 0.03 | 0.03 | 82 | 1012.6 |
| 20260905045224 | 27 | 95 | 0.0 | 0.0 | 0.00 | 0.03 | 0.03 | 81 | 1012.6 |
| 20260905045156 | 27 | 95 | 0.0 | 0.0 | 0.00 | 0.03 | 0.03 | 81 | 1012.6 |
| 20260905044722 | 27 | 95 | 0.0 | 0.0 | 0.00 | 0.03 | 0.03 | 81 | 1012.6 |
| 20260905044223 | 27 | 95 | 0.0 | 0.0 | 0.00 | 0.03 | 0.03 | 80 | 1012.7 |
| 20260905044157 | 27 | 95 | 0.0 | 0.0 | 0.00 | 0.03 | 0.03 | 80 | 1012.7 |
| 20260905043724 | 27 | 95 | 1.6 | 3.2 | 0.00 | 0.03 | 0.03 | 80 | 1012.7 |
| 20260905043222 | 27 | 95 | 0.0 | 0.0 | 0.00 | 0.03 | 0.03 | 79 | 1012.7 |
| 20260905043156 | 27 | 95 | 0.0 | 1.6 | 0.00 | 0.03 | 0.03 | 79 | 1012.7 |
| 20260905042723 | 27 | 76 | 1.6 | 1.6 | 0.00 | 0.03 | 0.03 | 77 | 1012.7 |
| 20260905042224 | 28 | 100 | 1.6 | 1.6 | 0.00 | 0.03 | 0.03 | 77 | 1012.7 |
| 20260905042157 | 28 | 100 | 1.6 | 3.2 | 0.00 | 0.03 | 0.03 | 77 | 1012.7 |
| 20260905041722 | 28 | 112 | 0.0 | 0.0 | 0.00 | 0.03 | 0.03 | 77 | 1012.7 |
| 20260905041223 | 28 | 104 | 1.6 | 1.6 | 0.00 | 0.03 | 0.03 | 77 | 1012.8 |
| 20260905041158 | 28 | 104 | 0.0 | 1.6 | 0.00 | 0.03 | 0.03 | 77 | 1012.8 |
| 20260905040723 | 28 | 107 | 1.6 | 1.6 | 0.00 | 0.03 | 0.03 | 77 | 1012.8 |
| 20260905040223 | 28 | 89 | 1.6 | 1.6 | 0.00 | 0.03 | 0.03 | 76 | 1012.8 |
| 20260905040156 | 28 | 89 | 0.0 | 3.2 | 0.00 | 0.03 | 0.03 | 76 | 1012.8 |
| 20260905035723 | 28 | 89 | 0.0 | 1.6 | 0.00 | 0.03 | 0.03 | 76 | 1012.9 |
| 20260905035222 | 28 | 90 | 1.6 | 3.2 | 0.00 | 0.03 | 0.03 | 76 | 1012.9 |
| 20260905035155 | 28 | 100 | 1.6 | 3.2 | 0.00 | 0.03 | 0.03 | 76 | 1012.9 |
| 20260905034723 | 28 | 78 | 1.6 | 3.2 | 0.00 | 0.03 | 0.03 | 76 | 1012.9 |
| 20260905034222 | 28 | 64 | 1.6 | 4.8 | 0.00 | 0.03 | 0.03 | 76 | 1013.0 |
| 20260905034159 | 28 | 83 | 3.2 | 3.2 | 0.00 | 0.03 | 0.03 | 75 | 1013.0 |
| 20260905033722 | 28 | 68 | 1.6 | 1.6 | 0.00 | 0.03 | 0.03 | 75 | 1013.0 |
| 20260905033223 | 28 | 73 | 1.6 | 1.6 | 0.00 | 0.03 | 0.03 | 75 | 1013.0 |
| 20260905033156 | 28 | 80 | 1.6 | 1.6 | 0.00 | 0.03 | 0.03 | 75 | 1013.0 |
| 20260905032722 | 28 | 82 | 3.2 | 3.2 | 0.00 | 0.03 | 0.03 | 75 | 1013.2 |
| 20260905032222 | 28 | 64 | 0.0 | 1.6 | 0.00 | 0.03 | 0.03 | 75 | 1013.2 |
| 20260905032155 | 28 | 64 | 0.0 | 1.6 | 0.00 | 0.03 | 0.03 | 75 | 1013.2 |
| 20260905031723 | 28 | 64 | 3.2 | 3.2 | 0.00 | 0.03 | 0.03 | 75 | 1013.2 |
| 20260905031222 | 28 | 80 | 1.6 | 3.2 | 0.00 | 0.03 | 0.03 | 75 | 1013.4 |
| 20260905031157 | 28 | 106 | 1.6 | 1.6 | 0.00 | 0.03 | 0.03 | 75 | 1013.4 |
| 20260905030723 | 28 | 86 | 1.6 | 1.6 | 0.00 | 0.03 | 0.03 | 75 | 1013.4 |
| 20260905030222 | 28 | 97 | 0.0 | 1.6 | 0.00 | 0.03 | 0.03 | 74 | 1013.4 |
| 20260905030157 | 28 | 65 | 0.0 | 3.2 | 0.00 | 0.03 | 0.03 | 74 | 1013.4 |
| 20260905025723 | 28 | 78 | 1.6 | 3.2 | 0.00 | 0.03 | 0.03 | 75 | 1013.5 |
| 20260905025223 | 28 | 48 | 1.6 | 3.2 | 0.00 | 0.03 | 0.03 | 74 | 1013.5 |
| 20260905025156 | 28 | 83 | 1.6 | 3.2 | 0.00 | 0.03 | 0.03 | 74 | 1013.5 |
| 20260905024723 | 28 | 79 | 3.2 | 3.2 | 0.00 | 0.03 | 0.03 | 75 | 1013.5 |
| 20260905024222 | 28 | 56 | 3.2 | 3.2 | 0.00 | 0.03 | 0.03 | 74 | 1013.6 |
| 20260905024157 | 28 | 69 | 1.6 | 3.2 | 0.00 | 0.03 | 0.03 | 74 | 1013.6 |
| 20260905023722 | 28 | 83 | 3.2 | 3.2 | 0.00 | 0.03 | 0.03 | 74 | 1013.6 |
| 20260905023223 | 28 | 73 | 1.6 | 3.2 | 0.00 | 0.03 | 0.03 | 74 | 1013.6 |
| 20260905023156 | 28 | 68 | 1.6 | 3.2 | 0.00 | 0.03 | 0.03 | 74 | 1013.6 |
| 20260905022722 | 28 | 100 | 3.2 | 3.2 | 0.00 | 0.03 | 0.03 | 74 | 1013.4 |
| 20260905022222 | 28 | 32 | 1.6 | 3.2 | 0.00 | 0.03 | 0.03 | 74 | 1013.4 |
| 20260905022155 | 28 | 65 | 1.6 | 1.6 | 0.00 | 0.03 | 0.03 | 74 | 1013.4 |
| 20260905021722 | 28 | 55 | 1.6 | 1.6 | 0.00 | 0.03 | 0.03 | 74 | 1013.4 |
| 20260905021223 | 28 | 97 | 0.0 | 1.6 | 0.00 | 0.03 | 0.03 | 73 | 1013.5 |
| 20260905021156 | 28 | 107 | 1.6 | 3.2 | 0.00 | 0.03 | 0.03 | 73 | 1013.5 |
| 20260905020723 | 28 | 96 | 1.6 | 4.8 | 0.00 | 0.03 | 0.03 | 73 | 1013.5 |
| 20260905020222 | 28 | 76 | 3.2 | 4.8 | 0.00 | 0.03 | 0.03 | 73 | 1013.5 |
| 20260905020157 | 28 | 79 | 3.2 | 3.2 | 0.00 | 0.03 | 0.03 | 73 | 1013.5 |
| 20260905015723 | 28 | 61 | 0.0 | 0.0 | 0.00 | 0.03 | 0.03 | 73 | 1013.4 |
| 20260905015223 | 28 | 58 | 3.2 | 4.8 | 0.00 | 0.03 | 0.03 | 73 | 1013.4 |
| 20260905015156 | 28 | 37 | 1.6 | 3.2 | 0.00 | 0.03 | 0.03 | 73 | 1013.4 |
| 20260905014722 | 28 | 55 | 3.2 | 4.8 | 0.00 | 0.03 | 0.03 | 73 | 1013.4 |
| 20260905014224 | 28 | 16 | 0.0 | 1.6 | 0.00 | 0.03 | 0.03 | 73 | 1013.2 |
| 20260905014156 | 28 | 16 | 3.2 | 3.2 | 0.00 | 0.03 | 0.03 | 73 | 1013.2 |
| 20260905013722 | 28 | 16 | 1.6 | 3.2 | 0.00 | 0.03 | 0.03 | 73 | 1013.2 |
| 20260905013223 | 28 | 14 | 1.6 | 3.2 | 0.00 | 0.03 | 0.03 | 73 | 1013.2 |
| 20260905013156 | 28 | 10 | 3.2 | 3.2 | 0.00 | 0.03 | 0.03 | 73 | 1013.2 |
| 20260905012725 | 28 | 8 | 1.6 | 3.2 | 0.00 | 0.03 | 0.03 | 73 | 1013.1 |
| 20260905012223 | 29 | 8 | 1.6 | 4.8 | 0.00 | 0.03 | 0.03 | 73 | 1013.1 |
| 20260905012157 | 29 | 13 | 3.2 | 4.8 | 0.00 | 0.03 | 0.03 | 73 | 1013.1 |
| 20260905011724 | 29 | 17 | 3.2 | 3.2 | 0.00 | 0.03 | 0.03 | 74 | 1013.1 |
| 20260905011223 | 29 | 14 | 1.6 | 3.2 | 0.00 | 0.03 | 0.03 | 73 | 1013.1 |
| 20260905011156 | 29 | 14 | 1.6 | 3.2 | 0.00 | 0.03 | 0.03 | 73 | 1013.1 |
| 20260905010723 | 29 | 6 | 1.6 | 3.2 | 0.00 | 0.03 | 0.03 | 73 | 1013.1 |
| 20260905010223 | 29 | 0 | 3.2 | 3.2 | 0.00 | 0.03 | 0.03 | 74 | 1013.1 |
| 20260905010157 | 29 | 0 | 3.2 | 3.2 | 0.00 | 0.03 | 0.03 | 74 | 1013.1 |
| 20260905005724 | 29 | 0 | 3.2 | 3.2 | 0.00 | 0.03 | 0.03 | 73 | 1013.1 |
| 20260905005222 | 29 | 4 | 1.6 | 4.8 | 0.00 | 0.03 | 0.03 | 72 | 1013.1 |
| 20260905005156 | 29 | 6 | 3.2 | 4.8 | 0.00 | 0.03 | 0.03 | 72 | 1013.1 |
| 20260905004723 | 29 | 4 | 3.2 | 4.8 | 0.00 | 0.03 | 0.03 | 72 | 1013.1 |
| 20260905004224 | 29 | 356 | 3.2 | 4.8 | 0.00 | 0.03 | 0.03 | 73 | 1013.0 |
| 20260905004156 | 30 | 356 | 3.2 | 3.2 | 0.00 | 0.03 | 0.03 | 73 | 1013.0 |
| 20260905003722 | 30 | 357 | 1.6 | 3.2 | 0.03 | 0.03 | 0.03 | 73 | 1013.0 |
| 20260905003223 | 30 | 356 | 1.6 | 3.2 | 0.03 | 0.03 | 0.03 | 73 | 1013.0 |
| 20260905003157 | 30 | 357 | 1.6 | 3.2 | 0.03 | 0.03 | 0.03 | 73 | 1013.0 |
| 20260905002723 | 30 | 357 | 3.2 | 4.8 | 0.03 | 0.03 | 0.03 | 72 | 1013.1 |
| 20260905002224 | 30 | 0 | 3.2 | 4.8 | 0.03 | 0.03 | 0.03 | 70 | 1013.1 |
| 20260905002157 | 30 | 0 | 3.2 | 4.8 | 0.03 | 0.03 | 0.03 | 70 | 1013.1 |
| 20260905001723 | 30 | 0 | 3.2 | 4.8 | 0.03 | 0.03 | 0.03 | 70 | 1013.1 |
| 20260905001223 | 30 | 0 | 1.6 | 3.2 | 0.03 | 0.03 | 0.03 | 70 | 1013.0 |
| 20260905001156 | 30 | 0 | 1.6 | 3.2 | 0.03 | 0.03 | 0.03 | 70 | 1013.0 |
| 20260905000724 | 30 | 0 | 1.6 | 3.2 | 0.03 | 0.03 | 0.03 | 70 | 1013.0 |
| 20260905000222 | 30 | 0 | 0.0 | 0.0 | 0.03 | 0.03 | 0.03 | 70 | 1013.0 |
| 20260905000156 | 30 | 0 | 0.0 | 0.0 | 0.03 | 0.03 | 0.03 | 70 | 1013.0 |
| 20260904235723 | 30 | 0 | 0.0 | 0.0 | 0.03 | 0.03 | 0.03 | 71 | 1013.0 |
| 20260904235224 | 30 | 0 | 0.0 | 0.0 | 0.03 | 0.03 | 0.03 | 71 | 1013.0 |
| 20260904235156 | 31 | 0 | 0.0 | 0.0 | 0.03 | 0.03 | 0.03 | 71 | 1013.0 |
| 20260904234722 | 31 | 0 | 1.6 | 3.2 | 0.03 | 0.03 | 0.03 | 71 | 1013.0 |
| 20260904234235 | 31 | 10 | 1.6 | 3.2 | 0.03 | 0.03 | 0.03 | 70 | 1013.0 |
| 20260904234223 | 31 | 10 | 1.6 | 3.2 | 0.03 | 0.03 | 0.03 | 70 | 1013.0 |
| 20260904234156 | 31 | 10 | 1.6 | 3.2 | 0.03 | 0.03 | 0.03 | 70 | 1013.0 |
| 20260904233723 | 31 | 8 | 1.6 | 3.2 | 0.03 | 0.03 | 0.03 | 69 | 1013.0 |
| 20260904233222 | 31 | 59 | 1.6 | 1.6 | 0.00 | 0.00 | 0.00 | 69 | 1013.0 |
| 20260904233157 | 31 | 59 | 1.6 | 1.6 | 0.00 | 0.00 | 0.00 | 69 | 1013.0 |
| 20260904232723 | 31 | 59 | 0.0 | 0.0 | 0.00 | 0.00 | 0.00 | 69 | 1012.9 |
| 20260904232223 | 31 | 59 | 0.0 | 0.0 | 0.00 | 0.00 | 0.00 | 68 | 1012.9 |
| 20260904232156 | 31 | 59 | 0.0 | 0.0 | 0.00 | 0.00 | 0.00 | 68 | 1012.9 |
| 20260904231724 | 31 | 59 | 0.0 | 0.0 | 0.00 | 0.00 | 0.00 | 67 | 1012.9 |
| 20260904231223 | 31 | 49 | 0.0 | 0.0 | 0.00 | 0.00 | 0.00 | 67 | 1012.6 |
| 20260904231155 | 31 | 49 | 0.0 | 0.0 | 0.00 | 0.00 | 0.00 | 67 | 1012.6 |
| 20260904230723 | 32 | 49 | 0.0 | 1.6 | 0.00 | 0.00 | 0.00 | 67 | 1012.6 |
| 20260904230224 | 32 | 56 | 0.0 | 4.8 | 0.00 | 0.00 | 0.00 | 66 | 1012.6 |
| 20260904230157 | 32 | 59 | 3.2 | 4.8 | 0.00 | 0.00 | 0.00 | 66 | 1012.6 |
| 20260904225723 | 32 | 1 | 1.6 | 1.6 | 0.00 | 0.00 | 0.00 | 66 | 1012.6 |
| 20260904225223 | 32 | 31 | 1.6 | 1.6 | 0.00 | 0.00 | 0.00 | 65 | 1012.6 |
| 20260904225156 | 32 | 27 | 1.6 | 3.2 | 0.00 | 0.00 | 0.00 | 65 | 1012.6 |
| 20260904224723 | 32 | 0 | 1.6 | 1.6 | 0.00 | 0.00 | 0.00 | 65 | 1012.6 |
| 20260904224233 | 32 | 13 | 3.2 | 3.2 | 0.00 | 0.00 | 0.00 | 65 | 1012.5 |
| 20260904224223 | 32 | 17 | 0.0 | 3.2 | 0.00 | 0.00 | 0.00 | 65 | 1012.5 |
| 20260904224157 | 32 | 13 | 3.2 | 3.2 | 0.00 | 0.00 | 0.00 | 65 | 1012.5 |
| 20260904223724 | 32 | 1 | 3.2 | 3.2 | 0.00 | 0.00 | 0.00 | 64 | 1012.5 |
| 20260904223223 | 32 | 88 | 1.6 | 4.8 | 0.00 | 0.00 | 0.00 | 63 | 1012.5 |
| 20260904223155 | 32 | 76 | 1.6 | 4.8 | 0.00 | 0.00 | 0.00 | 63 | 1012.5 |
| 20260904222723 | 32 | 7 | 3.2 | 6.4 | 0.00 | 0.00 | 0.00 | 64 | 1012.5 |
| 20260904222224 | 32 | 76 | 1.6 | 4.8 | 0.00 | 0.00 | 0.00 | 64 | 1012.5 |
| 20260904222157 | 32 | 97 | 0.0 | 4.8 | 0.00 | 0.00 | 0.00 | 64 | 1012.5 |
| 20260904221722 | 32 | 75 | 1.6 | 3.2 | 0.00 | 0.00 | 0.00 | 62 | 1012.5 |
| 20260904221223 | 32 | 51 | 4.8 | 8.0 | 0.00 | 0.00 | 0.00 | 62 | 1012.3 |
| 20260904221156 | 32 | 90 | 6.4 | 6.4 | 0.00 | 0.00 | 0.00 | 62 | 1012.3 |
| 20260904220724 | 32 | 88 | 0.0 | 0.0 | 0.00 | 0.00 | 0.00 | 60 | 1012.3 |
| 20260904220222 | 32 | 136 | 1.6 | 1.6 | 0.00 | 0.00 | 0.00 | 63 | 1012.3 |
| 20260904220155 | 32 | 136 | 1.6 | 3.2 | 0.00 | 0.00 | 0.00 | 63 | 1012.3 |
| 20260904215723 | 32 | 62 | 1.6 | 1.6 | 0.00 | 0.00 | 0.00 | 63 | 1012.5 |
| 20260904215223 | 32 | 119 | 1.6 | 4.8 | 0.00 | 0.00 | 0.00 | 64 | 1012.5 |
| 20260904215156 | 32 | 97 | 4.8 | 4.8 | 0.00 | 0.00 | 0.00 | 64 | 1012.5 |
| 20260904214723 | 32 | 47 | 1.6 | 3.2 | 0.00 | 0.00 | 0.00 | 62 | 1012.5 |
| 20260904214222 | 33 | 65 | 4.8 | 4.8 | 0.00 | 0.00 | 0.00 | 62 | 1012.4 |
| 20260904214157 | 33 | 34 | 0.0 | 0.0 | 0.00 | 0.00 | 0.00 | 62 | 1012.4 |
| 20260904213722 | 33 | 104 | 4.8 | 4.8 | 0.00 | 0.00 | 0.00 | 61 | 1012.4 |
| 20260904213223 | 33 | 106 | 4.8 | 4.8 | 0.00 | 0.00 | 0.00 | 61 | 1012.4 |
| 20260904213156 | 33 | 86 | 4.8 | 8.0 | 0.00 | 0.00 | 0.00 | 61 | 1012.4 |
| 20260904212722 | 33 | 162 | 0.0 | 1.6 | 0.00 | 0.00 | 0.00 | 62 | 1012.4 |
| 20260904212222 | 33 | 69 | 1.6 | 3.2 | 0.00 | 0.00 | 0.00 | 60 | 1012.4 |
| 20260904212156 | 33 | 76 | 3.2 | 8.0 | 0.00 | 0.00 | 0.00 | 60 | 1012.4 |
| 20260904211722 | 33 | 51 | 4.8 | 6.4 | 0.00 | 0.00 | 0.00 | 58 | 1012.4 |
| 20260904211223 | 33 | 130 | 4.8 | 8.0 | 0.00 | 0.00 | 0.00 | 58 | 1012.6 |
| 20260904211156 | 33 | 109 | 3.2 | 4.8 | 0.00 | 0.00 | 0.00 | 58 | 1012.6 |
| 20260904210723 | 33 | 100 | 6.4 | 8.0 | 0.00 | 0.00 | 0.00 | 58 | 1012.6 |
| 20260904210222 | 33 | 49 | 8.0 | 11.3 | 0.00 | 0.00 | 0.00 | 57 | 1012.6 |
| 20260904210157 | 33 | 66 | 3.2 | 3.2 | 0.00 | 0.00 | 0.00 | 57 | 1012.6 |
| 20260904205723 | 33 | 45 | 3.2 | 3.2 | 0.00 | 0.00 | 0.00 | 61 | 1012.7 |
| 20260904205223 | 33 | 52 | 0.0 | 4.8 | 0.00 | 0.00 | 0.00 | 58 | 1012.7 |
| 20260904205156 | 33 | 82 | 4.8 | 4.8 | 0.00 | 0.00 | 0.00 | 58 | 1012.7 |
| 20260904204722 | 33 | 1 | 3.2 | 6.4 | 0.00 | 0.00 | 0.00 | 58 | 1012.7 |
| 20260904204222 | 33 | 64 | 6.4 | 8.0 | 0.00 | 0.00 | 0.00 | 57 | 1012.8 |
| 20260904204157 | 33 | 92 | 4.8 | 9.7 | 0.00 | 0.00 | 0.00 | 57 | 1012.8 |
| 20260904203722 | 34 | 112 | 6.4 | 6.4 | 0.00 | 0.00 | 0.00 | 54 | 1012.8 |
| 20260904203223 | 34 | 106 | 4.8 | 4.8 | 0.00 | 0.00 | 0.00 | 57 | 1012.8 |
| 20260904203157 | 34 | 97 | 1.6 | 4.8 | 0.00 | 0.00 | 0.00 | 57 | 1012.8 |
| 20260904202724 | 34 | 154 | 0.0 | 4.8 | 0.00 | 0.00 | 0.00 | 60 | 1013.1 |
| 20260904202222 | 33 | 114 | 4.8 | 8.0 | 0.00 | 0.00 | 0.00 | 58 | 1013.1 |
| 20260904202157 | 33 | 112 | 4.8 | 6.4 | 0.00 | 0.00 | 0.00 | 58 | 1013.1 |
| 20260904201723 | 33 | 155 | 1.6 | 3.2 | 0.00 | 0.00 | 0.00 | 59 | 1013.1 |
| 20260904201223 | 33 | 61 | 4.8 | 8.0 | 0.00 | 0.00 | 0.00 | 57 | 1013.3 |
| 20260904201156 | 33 | 89 | 8.0 | 9.7 | 0.00 | 0.00 | 0.00 | 57 | 1013.3 |
| 20260904200723 | 33 | 130 | 0.0 | 1.6 | 0.00 | 0.00 | 0.00 | 60 | 1013.3 |
| 20260904200222 | 33 | 62 | 4.8 | 6.4 | 0.00 | 0.00 | 0.00 | 58 | 1013.3 |
| 20260904200157 | 33 | 38 | 3.2 | 8.0 | 0.00 | 0.00 | 0.00 | 58 | 1013.3 |
| 20260904195723 | 33 | 78 | 3.2 | 4.8 | 0.00 | 0.00 | 0.00 | 58 | 1013.5 |
| 20260904195223 | 33 | 30 | 6.4 | 8.0 | 0.00 | 0.00 | 0.00 | 58 | 1013.5 |
| 20260904195156 | 33 | 359 | 8.0 | 11.3 | 0.00 | 0.00 | 0.00 | 58 | 1013.5 |
| 20260904194722 | 33 | 24 | 3.2 | 6.4 | 0.00 | 0.00 | 0.00 | 62 | 1013.5 |
| 20260904194224 | 33 | 164 | 1.6 | 1.6 | 0.00 | 0.00 | 0.00 | 59 | 1013.9 |
| 20260904194157 | 33 | 147 | 1.6 | 6.4 | 0.00 | 0.00 | 0.00 | 59 | 1013.9 |
| 20260904193723 | 33 | 34 | 3.2 | 3.2 | 0.00 | 0.00 | 0.00 | 58 | 1013.9 |
| 20260904193224 | 33 | 80 | 4.8 | 8.0 | 0.00 | 0.00 | 0.00 | 58 | 1013.9 |
| 20260904193157 | 33 | 123 | 1.6 | 4.8 | 0.00 | 0.00 | 0.00 | 62 | 1013.9 |
| 20260904192723 | 33 | 130 | 4.8 | 9.7 | 0.00 | 0.00 | 0.00 | 60 | 1014.2 |
| 20260904192223 | 33 | 107 | 4.8 | 4.8 | 0.00 | 0.00 | 0.00 | 59 | 1014.2 |
| 20260904192156 | 33 | 71 | 6.4 | 6.4 | 0.00 | 0.00 | 0.00 | 59 | 1014.2 |
| 20260904191724 | 33 | 158 | 1.6 | 8.0 | 0.00 | 0.00 | 0.00 | 59 | 1014.2 |
| 20260904191222 | 33 | 126 | 4.8 | 4.8 | 0.00 | 0.00 | 0.00 | 62 | 1014.4 |
| 20260904191155 | 33 | 23 | 1.6 | 3.2 | 0.00 | 0.00 | 0.00 | 62 | 1014.4 |
| 20260904190723 | 33 | 116 | 4.8 | 6.4 | 0.00 | 0.00 | 0.00 | 62 | 1014.4 |
| 20260904190224 | 33 | 113 | 3.2 | 8.0 | 0.00 | 0.00 | 0.00 | 61 | 1014.4 |
| 20260904190157 | 33 | 93 | 3.2 | 3.2 | 0.00 | 0.00 | 0.00 | 60 | 1014.4 |
| 20260904185722 | 33 | 82 | 6.4 | 9.7 | 0.00 | 0.00 | 0.00 | 60 | 1014.5 |
| 20260904185223 | 33 | 100 | 9.7 | 9.7 | 0.00 | 0.00 | 0.00 | 60 | 1014.5 |
| 20260904185156 | 33 | 117 | 6.4 | 6.4 | 0.00 | 0.00 | 0.00 | 60 | 1014.5 |
| 20260904184723 | 33 | 119 | 6.4 | 8.0 | 0.00 | 0.00 | 0.00 | 59 | 1014.5 |
| 20260904184223 | 33 | 113 | 3.2 | 4.8 | 0.00 | 0.00 | 0.00 | 63 | 1014.8 |
| 20260904184156 | 33 | 14 | 1.6 | 1.6 | 0.00 | 0.00 | 0.00 | 63 | 1014.8 |
| 20260904183724 | 33 | 136 | 6.4 | 6.4 | 0.00 | 0.00 | 0.00 | 62 | 1014.8 |
| 20260904183223 | 33 | 167 | 0.0 | 3.2 | 0.00 | 0.00 | 0.00 | 61 | 1014.8 |
| 20260904183155 | 33 | 356 | 3.2 | 4.8 | 0.00 | 0.00 | 0.00 | 61 | 1014.8 |
| 20260904182723 | 33 | 37 | 4.8 | 4.8 | 0.00 | 0.00 | 0.00 | 63 | 1014.9 |
| 20260904182224 | 33 | 65 | 3.2 | 11.3 | 0.00 | 0.00 | 0.00 | 62 | 1014.9 |
| 20260904182157 | 33 | 151 | 6.4 | 6.4 | 0.00 | 0.00 | 0.00 | 62 | 1014.9 |
| 20260904181723 | 33 | 179 | 0.0 | 3.2 | 0.00 | 0.00 | 0.00 | 62 | 1014.9 |
| 20260904181222 | 33 | 121 | 1.6 | 4.8 | 0.00 | 0.00 | 0.00 | 62 | 1015.0 |
| 20260904181155 | 33 | 134 | 0.0 | 8.0 | 0.00 | 0.00 | 0.00 | 63 | 1015.0 |
| 20260904180723 | 33 | 144 | 0.0 | 6.4 | 0.00 | 0.00 | 0.00 | 61 | 1015.0 |
| 20260904180223 | 33 | 79 | 0.0 | 1.6 | 0.00 | 0.00 | 0.00 | 63 | 1015.0 |
| 20260904180156 | 33 | 120 | 0.0 | 0.0 | 0.00 | 0.00 | 0.00 | 65 | 1015.0 |
| 20260904175722 | 33 | 83 | 3.2 | 3.2 | 0.00 | 0.00 | 0.00 | 64 | 1015.2 |
| 20260904175223 | 33 | 79 | 3.2 | 6.4 | 0.00 | 0.00 | 0.00 | 62 | 1015.2 |
| 20260904175156 | 33 | 141 | 3.2 | 3.2 | 0.00 | 0.00 | 0.00 | 62 | 1015.2 |
| 20260904174722 | 33 | 123 | 0.0 | 0.0 | 0.00 | 0.00 | 0.00 | 61 | 1015.2 |
| 20260904174223 | 33 | 144 | 1.6 | 1.6 | 0.00 | 0.00 | 0.00 | 64 | 1015.4 |
| 20260904174156 | 33 | 144 | 1.6 | 4.8 | 0.00 | 0.00 | 0.00 | 64 | 1015.4 |
| 20260904173724 | 33 | 185 | 4.8 | 4.8 | 0.00 | 0.00 | 0.00 | 64 | 1015.4 |
| 20260904173222 | 33 | 203 | 0.0 | 0.0 | 0.00 | 0.00 | 0.00 | 64 | 1015.4 |
| 20260904173155 | 33 | 203 | 0.0 | 0.0 | 0.00 | 0.00 | 0.00 | 60 | 1015.4 |
| 20260904172723 | 33 | 49 | 1.6 | 3.2 | 0.00 | 0.00 | 0.00 | 60 | 1015.6 |
| 20260904172224 | 33 | 0 | 0.0 | 0.0 | 0.00 | 0.00 | 0.00 | 60 | 1015.6 |
| 20260904172156 | 33 | 0 | 0.0 | 1.6 | 0.00 | 0.00 | 0.00 | 60 | 1015.6 |
| 20260904171722 | 33 | 85 | 1.6 | 4.8 | 0.00 | 0.00 | 0.00 | 60 | 1015.6 |
| 20260904171223 | 33 | 130 | 4.8 | 6.4 | 0.00 | 0.00 | 0.00 | 63 | 1015.8 |
| 20260904171156 | 33 | 123 | 4.8 | 4.8 | 0.00 | 0.00 | 0.00 | 63 | 1015.8 |
| 20260904170722 | 33 | 288 | 1.6 | 4.8 | 0.00 | 0.00 | 0.00 | 64 | 1015.8 |
| 20260904170223 | 33 | 96 | 3.2 | 3.2 | 0.00 | 0.00 | 0.00 | 62 | 1015.8 |
| 20260904170156 | 33 | 0 | 0.0 | 0.0 | 0.00 | 0.00 | 0.00 | 63 | 1015.8 |
| 20260904165722 | 32 | 0 | 0.0 | 0.0 | 0.00 | 0.00 | 0.00 | 62 | 1016.0 |
| 20260904165223 | 32 | 41 | 0.0 | 1.6 | 0.00 | 0.00 | 0.00 | 61 | 1016.0 |
| 20260904165155 | 32 | 92 | 1.6 | 1.6 | 0.00 | 0.00 | 0.00 | 62 | 1016.0 |
| 20260904164723 | 32 | 126 | 0.0 | 3.2 | 0.00 | 0.00 | 0.00 | 59 | 1016.0 |
| 20260904164222 | 32 | 100 | 3.2 | 4.8 | 0.00 | 0.00 | 0.00 | 60 | 1016.1 |
| 20260904164157 | 32 | 69 | 4.8 | 4.8 | 0.00 | 0.00 | 0.00 | 61 | 1016.1 |
| 20260904163722 | 32 | 11 | 3.2 | 3.2 | 0.00 | 0.00 | 0.00 | 64 | 1016.1 |
| 20260904163223 | 32 | 20 | 1.6 | 3.2 | 0.00 | 0.00 | 0.00 | 66 | 1016.1 |
| 20260904163156 | 32 | 20 | 1.6 | 3.2 | 0.00 | 0.00 | 0.00 | 66 | 1016.1 |
| 20260904162722 | 32 | 282 | 0.0 | 1.6 | 0.00 | 0.00 | 0.00 | 65 | 1016.1 |
| 20260904162223 | 32 | 140 | 1.6 | 1.6 | 0.00 | 0.00 | 0.00 | 68 | 1016.1 |
| 20260904162156 | 32 | 143 | 0.0 | 0.0 | 0.00 | 0.00 | 0.00 | 68 | 1016.1 |
| 20260904161722 | 32 | 144 | 0.0 | 1.6 | 0.00 | 0.00 | 0.00 | 69 | 1016.1 |
| 20260904161223 | 32 | 227 | 0.0 | 0.0 | 0.00 | 0.00 | 0.00 | 69 | 1016.2 |
| 20260904161155 | 32 | 227 | 0.0 | 3.2 | 0.00 | 0.00 | 0.00 | 69 | 1016.2 |
| 20260904160723 | 32 | 226 | 0.0 | 1.6 | 0.00 | 0.00 | 0.00 | 69 | 1016.2 |
| 20260904160224 | 32 | 13 | 0.0 | 0.0 | 0.00 | 0.00 | 0.00 | 68 | 1016.2 |
| 20260904160157 | 32 | 13 | 0.0 | 1.6 | 0.00 | 0.00 | 0.00 | 68 | 1016.2 |
| 20260904155723 | 32 | 357 | 0.0 | 1.6 | 0.00 | 0.00 | 0.00 | 68 | 1016.3 |
| 20260904155223 | 31 | 178 | 1.6 | 1.6 | 0.00 | 0.00 | 0.00 | 69 | 1016.3 |
| 20260904155156 | 31 | 193 | 3.2 | 4.8 | 0.00 | 0.00 | 0.00 | 69 | 1016.3 |
| 20260904154724 | 31 | 114 | 1.6 | 3.2 | 0.00 | 0.00 | 0.00 | 69 | 1016.3 |
| 20260904154223 | 31 | 215 | 1.6 | 3.2 | 0.00 | 0.00 | 0.00 | 69 | 1016.3 |
| 20260904154155 | 31 | 191 | 0.0 | 1.6 | 0.00 | 0.00 | 0.00 | 69 | 1016.3 |
| 20260904153724 | 32 | 216 | 0.0 | 3.2 | 0.00 | 0.00 | 0.00 | 68 | 1016.3 |
| 20260904153223 | 32 | 162 | 1.6 | 1.6 | 0.00 | 0.00 | 0.00 | 67 | 1016.3 |
| 20260904153157 | 32 | 155 | 1.6 | 3.2 | 0.00 | 0.00 | 0.00 | 67 | 1016.3 |
| 20260904152723 | 32 | 198 | 0.0 | 1.6 | 0.00 | 0.00 | 0.00 | 68 | 1016.1 |
| 20260904152230 | 31 | 104 | 1.6 | 3.2 | 0.00 | 0.00 | 0.00 | 68 | 1016.1 |
| 20260904152224 | 31 | 104 | 1.6 | 1.6 | 0.00 | 0.00 | 0.00 | 67 | 1016.1 |
| 20260904152156 | 31 | 104 | 1.6 | 3.2 | 0.00 | 0.00 | 0.00 | 68 | 1016.1 |
| 20260904151723 | 31 | 137 | 3.2 | 3.2 | 0.00 | 0.00 | 0.00 | 69 | 1016.1 |
| 20260904151222 | 31 | 102 | 1.6 | 1.6 | 0.00 | 0.00 | 0.00 | 68 | 1016.0 |
| 20260904151156 | 31 | 141 | 0.0 | 0.0 | 0.00 | 0.00 | 0.00 | 68 | 1016.0 |
| 20260904150723 | 31 | 151 | 1.6 | 1.6 | 0.00 | 0.00 | 0.00 | 70 | 1016.0 |
| 20260904150224 | 31 | 134 | 1.6 | 3.2 | 0.00 | 0.00 | 0.00 | 70 | 1016.0 |
| 20260904150155 | 30 | 151 | 3.2 | 3.2 | 0.00 | 0.00 | 0.00 | 71 | 1016.0 |
| 20260904145722 | 30 | 196 | 0.0 | 0.0 | 0.00 | 0.00 | 0.00 | 72 | 1015.9 |
| 20260904145223 | 30 | 112 | 1.6 | 1.6 | 0.00 | 0.00 | 0.00 | 74 | 1015.9 |
| 20260904145159 | 30 | 150 | 1.6 | 4.8 | 0.00 | 0.00 | 0.00 | 74 | 1015.9 |
| 20260904144724 | 30 | 251 | 0.0 | 1.6 | 0.00 | 0.00 | 0.00 | 74 | 1015.9 |
| 20260904144223 | 29 | 195 | 0.0 | 1.6 | 0.00 | 0.00 | 0.00 | 73 | 1015.9 |
| 20260904144156 | 29 | 184 | 0.0 | 1.6 | 0.00 | 0.00 | 0.00 | 73 | 1015.9 |
| 20260904143724 | 29 | 138 | 1.6 | 1.6 | 0.00 | 0.00 | 0.00 | 74 | 1015.9 |
| 20260904143245 | 28 | 154 | 0.0 | 0.0 | 0.00 | 0.00 | 0.00 | 75 | 1015.9 |
| 20260904143223 | 28 | 154 | 0.0 | 0.0 | 0.00 | 0.00 | 0.00 | 75 | 1015.9 |
| 20260904143156 | 28 | 154 | 0.0 | 0.0 | 0.00 | 0.00 | 0.00 | 75 | 1015.9 |
| 20260904142723 | 28 | 155 | 0.0 | 3.2 | 0.00 | 0.00 | 0.00 | 75 | 1015.9 |
| 20260904142224 | 28 | 230 | 1.6 | 1.6 | 0.00 | 0.00 | 0.00 | 75 | 1015.9 |
| 20260904142156 | 28 | 230 | 1.6 | 3.2 | 0.00 | 0.00 | 0.00 | 75 | 1015.9 |
| 20260904141722 | 28 | 178 | 0.0 | 0.0 | 0.00 | 0.00 | 0.00 | 74 | 1015.9 |
| 20260904141222 | 28 | 140 | 0.0 | 0.0 | 0.00 | 0.00 | 0.00 | 74 | 1015.8 |
| 20260904141158 | 28 | 140 | 0.0 | 1.6 | 0.00 | 0.00 | 0.00 | 74 | 1015.8 |
| 20260904140723 | 28 | 172 | 0.0 | 1.6 | 0.00 | 0.00 | 0.00 | 74 | 1015.8 |
| 20260904140223 | 28 | 172 | 0.0 | 0.0 | 0.00 | 0.00 | 0.00 | 77 | 1015.8 |
| 20260904140156 | 28 | 172 | 0.0 | 6.4 | 0.00 | 0.00 | 0.00 | 76 | 1015.8 |
| 20260904135722 | 28 | 161 | 0.0 | 0.0 | 0.00 | 0.00 | 0.00 | 76 | 1015.8 |
| 20260904135222 | 28 | 130 | 3.2 | 3.2 | 0.00 | 0.00 | 0.00 | 81 | 1015.8 |
| 20260904135155 | 28 | 165 | 0.0 | 1.6 | 0.00 | 0.00 | 0.00 | 81 | 1015.8 |
| 20260904134723 | 28 | 160 | 0.0 | 0.0 | 0.00 | 0.00 | 0.00 | 80 | 1015.8 |
| 20260904134222 | 28 | 193 | 0.0 | 1.6 | 0.00 | 0.00 | 0.00 | 81 | 1015.8 |
| 20260904134159 | 28 | 193 | 1.6 | 1.6 | 0.00 | 0.00 | 0.00 | 81 | 1015.8 |
| 20260904133723 | 27 | 158 | 0.0 | 0.0 | 0.00 | 0.00 | 0.00 | 81 | 1015.8 |
| 20260904133222 | 27 | 157 | 1.6 | 1.6 | 0.00 | 0.00 | 0.00 | 81 | 1015.8 |
| 20260904133157 | 27 | 167 | 1.6 | 1.6 | 0.00 | 0.00 | 0.00 | 81 | 1015.8 |
| 20260904132723 | 27 | 151 | 0.0 | 0.0 | 0.00 | 0.00 | 0.00 | 81 | 1015.9 |
| 20260904132223 | 27 | 151 | 0.0 | 1.6 | 0.00 | 0.00 | 0.00 | 82 | 1015.9 |
| 20260904132158 | 27 | 161 | 0.0 | 0.0 | 0.00 | 0.00 | 0.00 | 82 | 1015.9 |
| 20260904131722 | 27 | 164 | 1.6 | 3.2 | 0.00 | 0.00 | 0.00 | 84 | 1015.9 |
| 20260904131223 | 26 | 109 | 0.0 | 0.0 | 0.00 | 0.00 | 0.00 | 85 | 1015.8 |
| 20260904131156 | 26 | 109 | 0.0 | 0.0 | 0.00 | 0.00 | 0.00 | 85 | 1015.8 |
| 20260904130722 | 26 | 109 | 0.0 | 0.0 | 0.00 | 0.00 | 0.00 | 84 | 1015.8 |
| 20260904130223 | 26 | 126 | 3.2 | 3.2 | 0.00 | 0.00 | 0.00 | 86 | 1015.8 |
| 20260904130157 | 26 | 126 | 1.6 | 3.2 | 0.00 | 0.00 | 0.00 | 86 | 1015.8 |
| 20260904125723 | 26 | 150 | 1.6 | 1.6 | 0.00 | 0.00 | 0.00 | 87 | 1015.8 |
| 20260904125222 | 25 | 133 | 3.2 | 3.2 | 0.00 | 0.00 | 0.00 | 88 | 1015.8 |
| 20260904125157 | 25 | 164 | 1.6 | 3.2 | 0.00 | 0.00 | 0.00 | 88 | 1015.8 |
| 20260904124723 | 25 | 158 | 0.0 | 3.2 | 0.00 | 0.00 | 0.00 | 88 | 1015.8 |
| 20260904124222 | 25 | 138 | 1.6 | 3.2 | 0.00 | 0.00 | 0.00 | 88 | 1015.6 |
| 20260904124156 | 25 | 134 | 3.2 | 3.2 | 0.00 | 0.00 | 0.00 | 88 | 1015.6 |
| 20260904123723 | 25 | 141 | 1.6 | 3.2 | 0.00 | 0.00 | 0.00 | 88 | 1015.6 |
| 20260904123224 | 25 | 124 | 1.6 | 3.2 | 0.00 | 0.00 | 0.00 | 88 | 1015.6 |
| 20260904123156 | 25 | 116 | 3.2 | 3.2 | 0.00 | 0.00 | 0.00 | 88 | 1015.6 |
| 20260904122722 | 25 | 106 | 0.0 | 3.2 | 0.00 | 0.00 | 0.00 | 89 | 1015.4 |
| 20260904122223 | 25 | 110 | 0.0 | 0.0 | 0.00 | 0.00 | 0.00 | 90 | 1015.4 |
| 20260904122156 | 25 | 104 | 0.0 | 0.0 | 0.00 | 0.00 | 0.00 | 90 | 1015.4 |
| 20260904121722 | 25 | 145 | 0.0 | 0.0 | 0.00 | 0.00 | 0.00 | 90 | 1015.4 |
| 20260904121223 | 25 | 96 | 0.0 | 0.0 | 0.00 | 0.00 | 0.00 | 90 | 1015.2 |
| 20260904121157 | 24 | 117 | 0.0 | 0.0 | 0.00 | 0.00 | 0.00 | 90 | 1015.2 |
| 20260904120724 | 24 | 102 | 0.0 | 0.0 | 0.00 | 0.00 | 0.00 | 91 | 1015.2 |
| 20260904120222 | 24 | 79 | 1.6 | 1.6 | 0.00 | 0.00 | 0.00 | 91 | 1015.2 |
| 20260904120158 | 24 | 89 | 1.6 | 3.2 | 0.00 | 0.00 | 0.00 | 91 | 1015.2 |
| 20260904115723 | 24 | 72 | 0.0 | 3.2 | 0.00 | 0.00 | 0.00 | 91 | 1015.0 |
| 20260904115223 | 24 | 117 | 1.6 | 3.2 | 0.00 | 0.00 | 0.00 | 91 | 1015.0 |
| 20260904115157 | 24 | 100 | 3.2 | 3.2 | 0.00 | 0.00 | 0.00 | 91 | 1015.0 |
| 20260904114722 | 24 | 113 | 3.2 | 3.2 | 0.00 | 0.00 | 0.00 | 91 | 1015.0 |
| 20260904114223 | 24 | 107 | 0.0 | 0.0 | 0.00 | 0.00 | 0.00 | 91 | 1014.8 |
| 20260904114155 | 24 | 130 | 0.0 | 0.0 | 0.00 | 0.00 | 0.00 | 91 | 1014.8 |
| 20260904113723 | 24 | 134 | 0.0 | 0.0 | 0.00 | 0.00 | 0.00 | 91 | 1014.8 |
| 20260904113224 | 24 | 100 | 0.0 | 0.0 | 0.00 | 0.00 | 0.00 | 91 | 1014.8 |
| 20260904113156 | 24 | 109 | 0.0 | 0.0 | 0.00 | 0.00 | 0.00 | 91 | 1014.8 |
| 20260904112722 | 24 | 127 | 0.0 | 3.2 | 0.00 | 0.00 | 0.00 | 91 | 1014.8 |
| 20260904112223 | 24 | 106 | 0.0 | 0.0 | 0.00 | 0.00 | 0.00 | 90 | 1014.8 |
| 20260904112156 | 24 | 107 | 0.0 | 0.0 | 0.00 | 0.00 | 0.00 | 90 | 1014.8 |
| 20260904111724 | 24 | 107 | 0.0 | 0.0 | 0.00 | 0.00 | 0.00 | 91 | 1014.8 |
| 20260904111227 | 24 | 93 | 3.2 | 3.2 | 0.00 | 0.00 | 0.00 | 91 | 1014.6 |
| 20260904111222 | 24 | 100 | 1.6 | 3.2 | 0.00 | 0.00 | 0.00 | 91 | 1014.6 |
| 20260904111155 | 24 | 93 | 3.2 | 3.2 | 0.00 | 0.00 | 0.00 | 91 | 1014.6 |
| 20260904110723 | 24 | 100 | 0.0 | 1.6 | 0.00 | 0.00 | 0.00 | 91 | 1014.6 |
| 20260904110224 | 24 | 104 | 3.2 | 3.2 | 0.00 | 0.00 | 0.00 | 91 | 1014.6 |
| 20260904110157 | 24 | 104 | 1.6 | 3.2 | 0.00 | 0.00 | 0.00 | 91 | 1014.6 |
| 20260904105722 | 24 | 121 | 0.0 | 3.2 | 0.00 | 0.00 | 0.00 | 91 | 1014.6 |
| 20260904105223 | 24 | 127 | 1.6 | 3.2 | 0.00 | 0.00 | 0.00 | 91 | 1014.6 |
| 20260904105157 | 24 | 134 | 0.0 | 1.6 | 0.00 | 0.00 | 0.00 | 91 | 1014.6 |
| 20260904104724 | 24 | 138 | 3.2 | 3.2 | 0.00 | 0.00 | 0.00 | 91 | 1014.6 |
| 20260904104222 | 24 | 145 | 0.0 | 1.6 | 0.00 | 0.00 | 0.00 | 91 | 1014.4 |
| 20260904104155 | 24 | 145 | 0.0 | 0.0 | 0.00 | 0.00 | 0.00 | 91 | 1014.4 |
| 20260904103723 | 24 | 145 | 0.0 | 0.0 | 0.00 | 0.00 | 0.00 | 91 | 1014.4 |
| 20260904103224 | 24 | 145 | 0.0 | 0.0 | 0.00 | 0.00 | 0.00 | 91 | 1014.4 |
| 20260904103156 | 24 | 145 | 0.0 | 0.0 | 0.00 | 0.00 | 0.00 | 91 | 1014.4 |
| 20260904102723 | 24 | 145 | 0.0 | 0.0 | 0.00 | 0.00 | 0.00 | 91 | 1014.4 |
| 20260904102224 | 24 | 145 | 0.0 | 0.0 | 0.00 | 0.00 | 0.00 | 91 | 1014.4 |
| 20260904102157 | 24 | 145 | 0.0 | 0.0 | 0.00 | 0.00 | 0.00 | 91 | 1014.4 |
| 20260904101723 | 24 | 145 | 0.0 | 0.0 | 0.00 | 0.00 | 0.00 | 91 | 1014.4 |
| 20260904101223 | 24 | 145 | 1.6 | 1.6 | 0.00 | 0.00 | 0.00 | 91 | 1014.0 |
| 20260904101156 | 24 | 145 | 0.0 | 1.6 | 0.00 | 0.00 | 0.00 | 91 | 1014.0 |
| 20260904100722 | 24 | 145 | 0.0 | 1.6 | 0.00 | 0.00 | 0.00 | 91 | 1014.0 |
| 20260904100223 | 24 | 145 | 0.0 | 0.0 | 0.00 | 0.00 | 0.00 | 91 | 1014.0 |
| 20260904100156 | 24 | 145 | 0.0 | 0.0 | 0.00 | 0.00 | 0.00 | 91 | 1014.0 |
| 20260904095722 | 24 | 145 | 0.0 | 1.6 | 0.00 | 0.00 | 0.00 | 90 | 1014.0 |
| 20260904095229 | 24 | 145 | 0.0 | 0.0 | 0.00 | 0.00 | 0.00 | 90 | 1014.0 |
| 20260904095223 | 24 | 145 | 0.0 | 0.0 | 0.00 | 0.00 | 0.00 | 90 | 1014.0 |
| 20260904095155 | 24 | 145 | 0.0 | 0.0 | 0.00 | 0.00 | 0.00 | 90 | 1014.0 |
| 20260904094723 | 24 | 145 | 1.6 | 1.6 | 0.00 | 0.00 | 0.00 | 90 | 1014.0 |
| 20260904094509 | 24 | 147 | 0.0 | 0.0 | 0.00 | 0.00 | 0.00 | 90 | 1014.0 |
| 20260904094232 | 24 | 147 | 0.0 | 0.0 | 0.00 | 0.00 | 0.00 | 90 | 1014.0 |
| 20260904094223 | 24 | 145 | 0.0 | 0.0 | 0.00 | 0.00 | 0.00 | 90 | 1014.0 |
| 20260904094156 | 24 | 147 | 0.0 | 0.0 | 0.00 | 0.00 | 0.00 | 90 | 1014.0 |
| 20260904093724 | 25 | 147 | 0.0 | 0.0 | 0.00 | 0.00 | 0.00 | 90 | 1014.0 |
| 20260904093222 | 25 | 147 | 0.0 | 0.0 | 0.00 | 0.00 | 0.00 | 89 | 1014.0 |
| 20260904093155 | 25 | 147 | 0.0 | 0.0 | 0.00 | 0.00 | 0.00 | 89 | 1014.0 |
| 20260904092723 | 25 | 143 | 0.0 | 0.0 | 0.00 | 0.00 | 0.00 | 89 | 1014.0 |
| 20260904092224 | 25 | 141 | 0.0 | 1.6 | 0.00 | 0.00 | 0.00 | 88 | 1014.0 |
| 20260904092156 | 25 | 141 | 1.6 | 1.6 | 0.00 | 0.00 | 0.00 | 88 | 1014.0 |
| 20260904091722 | 25 | 141 | 3.2 | 3.2 | 0.00 | 0.00 | 0.00 | 88 | 1014.0 |
| 20260904091223 | 25 | 152 | 1.6 | 3.2 | 0.00 | 0.00 | 0.00 | 88 | 1013.8 |
| 20260904091156 | 25 | 141 | 1.6 | 3.2 | 0.00 | 0.00 | 0.00 | 88 | 1013.8 |
| 20260904090722 | 25 | 144 | 4.8 | 4.8 | 0.00 | 0.00 | 0.00 | 87 | 1013.8 |
| 20260904090223 | 25 | 145 | 0.0 | 3.2 | 0.00 | 0.00 | 0.00 | 87 | 1013.8 |
| 20260904090156 | 25 | 161 | 0.0 | 1.6 | 0.00 | 0.00 | 0.00 | 87 | 1013.8 |
| 20260904085722 | 25 | 145 | 0.0 | 1.6 | 0.00 | 0.00 | 0.00 | 87 | 1013.8 |
| 20260904085222 | 25 | 174 | 1.6 | 3.2 | 0.00 | 0.00 | 0.00 | 86 | 1013.8 |
| 20260904085156 | 25 | 157 | 1.6 | 4.8 | 0.00 | 0.00 | 0.00 | 86 | 1013.8 |
| 20260904084723 | 25 | 127 | 1.6 | 4.8 | 0.00 | 0.00 | 0.00 | 86 | 1013.8 |
| 20260904084222 | 25 | 126 | 3.2 | 4.8 | 0.00 | 0.00 | 0.00 | 86 | 1013.9 |
| 20260904084157 | 25 | 119 | 1.6 | 3.2 | 0.00 | 0.00 | 0.00 | 86 | 1013.9 |
| 20260904083722 | 25 | 117 | 1.6 | 3.2 | 0.00 | 0.00 | 0.00 | 86 | 1013.9 |
| 20260904083222 | 25 | 113 | 0.0 | 3.2 | 0.00 | 0.00 | 0.00 | 85 | 1013.9 |
| 20260904083157 | 25 | 88 | 0.0 | 3.2 | 0.00 | 0.00 | 0.00 | 85 | 1013.9 |
| 20260904082723 | 25 | 117 | 1.6 | 3.2 | 0.00 | 0.00 | 0.00 | 85 | 1013.9 |
| 20260904082223 | 25 | 126 | 3.2 | 3.2 | 0.00 | 0.00 | 0.00 | 85 | 1013.9 |
| 20260904082156 | 25 | 75 | 3.2 | 3.2 | 0.00 | 0.00 | 0.00 | 85 | 1013.9 |
| 20260904081722 | 25 | 119 | 1.6 | 3.2 | 0.00 | 0.00 | 0.00 | 85 | 1013.9 |
| 20260904081223 | 25 | 120 | 3.2 | 3.2 | 0.00 | 0.00 | 0.00 | 85 | 1013.9 |
| 20260904081156 | 25 | 124 | 1.6 | 3.2 | 0.00 | 0.00 | 0.00 | 85 | 1013.9 |
| 20260904080723 | 25 | 134 | 4.8 | 4.8 | 0.00 | 0.00 | 0.00 | 84 | 1013.9 |
| 20260904080222 | 25 | 137 | 3.2 | 3.2 | 0.00 | 0.00 | 0.00 | 84 | 1013.9 |
| 20260904080200 | 25 | 127 | 3.2 | 4.8 | 0.00 | 0.00 | 0.00 | 84 | 1013.9 |
| 20260904075722 | 25 | 90 | 0.0 | 0.0 | 0.00 | 0.00 | 0.00 | 84 | 1013.9 |
| 20260904075223 | 25 | 102 | 0.0 | 0.0 | 0.00 | 0.00 | 0.00 | 83 | 1013.9 |
| 20260904075156 | 25 | 86 | 0.0 | 1.6 | 0.00 | 0.00 | 0.00 | 83 | 1013.9 |
| 20260904074722 | 25 | 127 | 3.2 | 3.2 | 0.00 | 0.00 | 0.00 | 83 | 1013.9 |
| 20260904074227 | 25 | 104 | 1.6 | 4.8 | 0.00 | 0.00 | 0.00 | 82 | 1013.9 |
| 20260904074223 | 25 | 114 | 4.8 | 4.8 | 0.00 | 0.00 | 0.00 | 82 | 1013.9 |
| 20260904074156 | 25 | 104 | 1.6 | 4.8 | 0.00 | 0.00 | 0.00 | 82 | 1013.9 |
| 20260904073723 | 25 | 127 | 0.0 | 3.2 | 0.00 | 0.00 | 0.00 | 82 | 1013.9 |
| 20260904073222 | 25 | 120 | 1.6 | 4.8 | 0.00 | 0.00 | 0.00 | 81 | 1013.9 |
| 20260904073157 | 25 | 107 | 3.2 | 4.8 | 0.00 | 0.00 | 0.00 | 81 | 1013.9 |
| 20260904072723 | 25 | 89 | 3.2 | 4.8 | 0.00 | 0.00 | 0.00 | 81 | 1013.9 |
| 20260904072223 | 25 | 114 | 1.6 | 3.2 | 0.00 | 0.00 | 0.00 | 82 | 1013.9 |
| 20260904072158 | 25 | 120 | 1.6 | 3.2 | 0.00 | 0.00 | 0.00 | 82 | 1013.9 |
| 20260904071723 | 25 | 109 | 3.2 | 4.8 | 0.00 | 0.00 | 0.00 | 82 | 1013.9 |
| 20260904071224 | 26 | 82 | 0.0 | 1.6 | 0.00 | 0.00 | 0.00 | 83 | 1013.9 |
| 20260904071157 | 26 | 112 | 1.6 | 3.2 | 0.00 | 0.00 | 0.00 | 83 | 1013.9 |
| 20260904070722 | 26 | 112 | 1.6 | 3.2 | 0.00 | 0.00 | 0.00 | 83 | 1013.9 |
| 20260904070223 | 26 | 96 | 1.6 | 1.6 | 0.00 | 0.00 | 0.00 | 82 | 1013.9 |
| 20260904070156 | 26 | 90 | 1.6 | 3.2 | 0.00 | 0.00 | 0.00 | 82 | 1013.9 |
| 20260904065724 | 26 | 92 | 4.8 | 4.8 | 0.00 | 0.00 | 0.00 | 83 | 1013.9 |
| 20260904065222 | 26 | 58 | 4.8 | 4.8 | 0.00 | 0.00 | 0.00 | 83 | 1013.9 |
| 20260904065158 | 26 | 72 | 3.2 | 4.8 | 0.00 | 0.00 | 0.00 | 82 | 1013.9 |
| 20260904064723 | 26 | 76 | 3.2 | 3.2 | 0.00 | 0.00 | 0.00 | 82 | 1013.9 |
| 20260904064223 | 26 | 85 | 1.6 | 3.2 | 0.00 | 0.00 | 0.00 | 82 | 1013.9 |
| 20260904064157 | 26 | 86 | 1.6 | 1.6 | 0.00 | 0.00 | 0.00 | 82 | 1013.9 |
| 20260904063723 | 26 | 83 | 1.6 | 3.2 | 0.00 | 0.00 | 0.00 | 82 | 1013.9 |
| 20260904063224 | 26 | 88 | 1.6 | 1.6 | 0.00 | 0.00 | 0.00 | 82 | 1013.9 |
| 20260904063159 | 26 | 88 | 1.6 | 3.2 | 0.00 | 0.00 | 0.00 | 82 | 1013.9 |
| 20260904062723 | 26 | 96 | 1.6 | 3.2 | 0.00 | 0.00 | 0.00 | 82 | 1014.0 |
| 20260904062223 | 26 | 71 | 0.0 | 1.6 | 0.00 | 0.00 | 0.00 | 81 | 1014.0 |
| 20260904062156 | 26 | 71 | 1.6 | 1.6 | 0.00 | 0.00 | 0.00 | 81 | 1014.0 |
| 20260904061723 | 26 | 71 | 0.0 | 1.6 | 0.00 | 0.00 | 0.00 | 80 | 1014.0 |
| 20260904061224 | 26 | 71 | 0.0 | 1.6 | 0.00 | 0.00 | 0.00 | 80 | 1013.9 |
| 20260904061156 | 26 | 72 | 1.6 | 1.6 | 0.00 | 0.00 | 0.00 | 80 | 1013.9 |
| 20260904060722 | 26 | 80 | 3.2 | 3.2 | 0.00 | 0.00 | 0.00 | 80 | 1013.9 |
| 20260904060223 | 26 | 66 | 1.6 | 3.2 | 0.00 | 0.00 | 0.00 | 80 | 1013.9 |
| 20260904060156 | 26 | 56 | 1.6 | 1.6 | 0.00 | 0.00 | 0.00 | 80 | 1013.9 |
| 20260904055724 | 26 | 82 | 1.6 | 4.8 | 0.00 | 0.00 | 0.00 | 80 | 1014.1 |
| 20260904055222 | 26 | 93 | 1.6 | 3.2 | 0.00 | 0.00 | 0.00 | 80 | 1014.1 |
| 20260904055157 | 26 | 103 | 1.6 | 3.2 | 0.00 | 0.00 | 0.00 | 80 | 1014.1 |
| 20260904054724 | 26 | 100 | 1.6 | 1.6 | 0.00 | 0.00 | 0.00 | 80 | 1014.1 |
| 20260904054224 | 26 | 88 | 3.2 | 3.2 | 0.00 | 0.00 | 0.00 | 80 | 1014.2 |
| 20260904054155 | 26 | 97 | 0.0 | 3.2 | 0.00 | 0.00 | 0.00 | 80 | 1014.2 |
| 20260904053722 | 26 | 92 | 1.6 | 3.2 | 0.00 | 0.00 | 0.00 | 80 | 1014.2 |
| 20260904053223 | 26 | 100 | 1.6 | 3.2 | 0.00 | 0.00 | 0.00 | 80 | 1014.2 |
| 20260904053157 | 26 | 99 | 1.6 | 1.6 | 0.00 | 0.00 | 0.00 | 80 | 1014.2 |